[[{"header":{"parameterUnit":"m.s-1","parameterCategory":1,"la1":30.2991,"la2":30.254,"lo1":-89.0895,"lo2":-89.0444,"dy":0.0017,"dx":0.0017,"nx":28,"ny":28,"refTime":"2023-07-29T09:00:00:Z","depth":0,"parameterNumber":2,"parameterNumberName":"U-component_of_WINDS"},"data":[0,0,0,0,0,0,0,0,0,0,0,0,0,0,0,0,0,0,0,0,0,0,0,0,0,0,0,0,0,0,0,0,0,0,0,0,0,0,0,0,0,0,0,0,0,0,0,0,0,0,0,0,0,0,0,0,0,0,4.9365,4.9367,0,4.9515,4.9517,4.9519,4.9431,4.9427,4.9423,4.9419,4.9577,4.9585,4.9593,0,0,0,0,0,0,0,0,0,0,0,0,0,4.9005,4.9012,4.9365,4.9367,4.9369,4.9515,4.9517,4.9519,4.9432,4.9427,4.9422,4.9417,4.9574,4.9584,4.9594,0,0,0,0,0,0,0,0,0,0,0,0,0,4.9159,4.9014,4.9364,4.9343,4.9342,4.9515,4.9517,4.952,4.9433,4.9427,4.942,4.9414,4.9571,4.9583,4.9595,4.9799,0,0,4.9632,4.9638,0,0,0,0,0,0,0,0,4.915,4.9172,4.9344,4.9344,4.9344,4.9448,4.9448,4.9613,4.9435,4.9399,4.9419,4.9411,4.9539,4.9554,4.9596,4.9806,4.9813,4.9634,4.9641,4.9646,4.965,0,0,0,0,0,0,0,4.914,4.9165,4.9424,4.9347,4.9347,4.9326,4.9341,4.9479,4.9503,4.9401,4.9395,4.9414,4.9538,4.9585,4.9599,4.9815,4.9633,4.9644,4.9652,4.9656,5.0199,5.0206,0,0,0,0,0,0,4.913,4.9157,4.942,4.9429,4.9229,4.9338,4.9354,4.9421,4.9501,4.9507,4.9419,4.941,4.9567,4.9585,4.9605,4.9847,4.9646,4.9658,4.9665,5.0192,5.02,5.0208,0,0,0,0,0,0,4.9123,4.9154,4.9414,4.9291,4.9323,4.9351,4.9427,4.9428,4.9474,4.9515,4.9519,4.9462,4.9562,4.9587,4.9751,4.9852,4.9663,4.9674,5.0184,5.0195,5.0204,5.0336,0,0,0,0,0,0,4.9113,4.9152,4.9229,4.9294,4.933,4.9557,4.9433,4.9435,4.9495,4.9483,4.9556,4.9562,4.9559,4.9733,4.9763,4.9865,4.9684,5.0175,5.0188,5.0201,5.0322,5.0349,5.0373,0,0,0,0,0,4.91,4.9261,4.9234,4.9266,4.9426,4.9563,4.9583,4.9575,4.9503,4.9581,4.9608,4.956,4.9836,4.975,4.9783,4.9891,5.0168,5.0185,5.02,5.0311,5.0344,5.0372,0,0,0,0,0,0,4.921,4.9269,4.9239,4.9426,4.949,4.9547,4.9646,4.9611,4.9697,4.9683,4.9671,4.9688,4.9858,4.9891,4.9794,5.0092,4.9991,5.0014,5.0064,5.0096,5.012,5.0109,4.9694,0,0,0,0,0,4.9255,4.936,4.9407,4.9567,4.96,4.9618,4.9677,4.9665,4.9731,4.9758,4.9797,4.9864,4.9965,5.0032,5.0128,5.0327,5.0341,5.0417,5.0442,5.0463,5.0483,5.059,5.0624,5.026,5.026,5.026,0,0,4.9351,4.9397,4.9464,4.959,4.9638,4.9747,4.9641,4.9762,4.9843,4.9777,4.9933,4.9964,5.0037,5.0219,5.0301,5.0252,5.0586,5.0483,5.0499,5.0508,5.0609,5.0644,5.0674,5.0271,5.0269,5.0267,0,0,4.9581,4.9626,4.9764,4.9814,4.9887,4.9898,4.9931,4.9994,5.0012,5.0168,5.012,5.0217,5.0393,5.0447,5.0497,5.0747,5.0707,5.0779,5.091,5.1014,5.1043,5.1068,5.1157,5.1189,5.0799,5.08,5.08,0,4.9691,4.9853,4.984,4.9963,5.002,4.9964,5.0104,5.0154,5.0256,5.0297,5.0239,5.0458,5.0504,5.0697,5.0757,5.0801,5.0838,5.0771,5.104,5.1065,5.1088,5.1173,5.1206,5.0808,5.0807,5.0806,5.0805,0,4.9984,5.0097,5.02,5.0298,5.0366,5.0498,5.0505,5.0576,5.0559,5.0576,5.0735,5.0788,5.0893,5.0938,5.0923,5.113,5.1096,5.104,5.0938,5.1131,5.121,5.1243,5.082,5.0817,5.0814,5.0812,0,0,5.0288,5.0376,5.0414,5.0457,5.0533,5.0621,5.075,5.0851,5.0912,5.0985,5.1092,5.1242,5.1189,5.1247,5.1237,5.1329,5.1523,5.1261,5.1263,5.1307,5.1753,5.1794,5.1831,5.1496,5.1502,5.1507,5.1746,0,5.0522,5.0745,5.0737,5.0946,5.105,5.0998,5.111,5.117,5.1189,5.1281,5.1302,5.1408,5.1331,5.1365,5.1454,5.148,5.1612,5.1463,5.1597,5.1601,5.1579,5.1873,5.1917,5.214,5.1777,5.1782,5.1786,0,5.0825,5.0906,5.1125,5.1185,5.1228,5.1329,5.142,5.1509,5.1575,5.1583,5.1647,5.1622,5.1753,5.1648,5.1828,5.1727,5.1782,5.1803,5.1811,5.1823,5.1705,5.1892,5.2211,5.2244,5.1835,5.1831,5.1827,0,5.1024,5.1187,5.1339,5.1378,5.1452,5.1524,5.1558,5.1618,5.1679,5.176,5.18,5.1895,5.1948,5.2023,5.2025,5.1948,5.2207,5.2102,5.2217,5.2217,5.2274,5.227,5.2605,5.231,5.231,5.2309,5.2308,0,5.1286,5.1422,5.1429,5.1522,5.1673,5.1662,5.1812,5.1839,5.1893,5.1991,5.1953,5.2046,5.2043,5.2139,5.2141,5.229,5.2314,5.2324,5.2323,5.2327,5.2326,5.2362,5.2346,5.2318,5.2316,5.2314,5.2313,0,5.1533,5.1543,5.1705,5.1761,5.1779,5.1887,5.1936,5.2025,5.204,5.2165,5.2193,5.2218,5.2327,5.2337,5.2465,5.2466,5.2646,5.2629,5.2623,5.262,5.2734,5.2723,5.3104,5.3153,5.2826,5.283,5.2832,0,5.17,5.1803,5.1869,5.1932,5.197,5.2071,5.2132,5.2126,5.2192,5.2275,5.2355,5.246,5.2544,5.2722,5.2752,5.2849,5.2833,5.296,5.2848,5.2848,5.2834,5.2828,5.2837,5.2982,5.2985,5.2988,5.2991,0,5.1994,5.1993,5.2083,5.2174,5.2249,5.2321,5.2388,5.2442,5.2444,5.252,5.2631,5.2696,5.2825,5.2931,5.3026,5.3062,5.3028,5.3026,5.3057,5.3062,5.3054,5.3059,5.2682,5.3017,5.3014,5.3012,5.3011,5.301,5.2205,5.2294,5.2354,5.2455,5.2505,5.2568,5.2654,5.2679,5.2771,5.2875,5.2866,5.2988,5.3052,5.3176,5.3219,5.3315,5.3273,5.3319,5.333,5.3342,5.3353,5.3039,5.3333,5.3332,5.3332,5.3331,5.333,0,5.2496,5.2532,5.2625,5.272,5.2799,5.2758,5.283,5.29,5.3007,5.3069,5.3152,5.3279,5.338,5.3418,5.3517,5.3587,5.3573,5.3613,5.3608,5.3616,5.3386,5.3348,5.3622,5.3622,5.3622,5.3622,5.3622,5.3622,5.2657,5.2804,5.2811,5.2982,5.3018,5.3136,5.3181,5.3239,5.3288,5.3431,5.3514,5.3537,5.359,5.3692,5.3783,5.3792,5.383,5.3876,5.3878,5.3662,5.3633,5.3605,5.3569,5.3885,5.3885,5.41,5.4102,5.4104]},{"header":{"parameterUnit":"m.s-1","parameterCategory":1,"la1":30.2991,"la2":30.254,"lo1":-89.0895,"lo2":-89.0444,"dy":0.0017,"dx":0.0017,"nx":28,"ny":28,"refTime":"2023-07-29T09:00:00:Z","depth":0,"parameterNumber":3,"parameterNumberName":"V-component_of_WINDS"},"data":[0,0,0,0,0,0,0,0,0,0,0,0,0,0,0,0,0,0,0,0,0,0,0,0,0,0,0,0,0,0,0,0,0,0,0,0,0,0,0,0,0,0,0,0,0,0,0,0,0,0,0,0,0,0,0,0,0,0,0.3382,0.3382,0,0.3444,0.3445,0.3446,0.3462,0.3461,0.3461,0.3461,0.3526,0.3528,0.3531,0,0,0,0,0,0,0,0,0,0,0,0,0,0.3276,0.3278,0.3381,0.3382,0.3383,0.3444,0.3445,0.3446,0.3462,0.3461,0.3461,0.346,0.3526,0.3528,0.3531,0,0,0,0,0,0,0,0,0,0,0,0,0,0.3329,0.3279,0.3381,0.3398,0.34,0.3444,0.3445,0.3446,0.3462,0.3461,0.3461,0.346,0.3525,0.3528,0.3531,0.3563,0,0,0.3541,0.3542,0,0,0,0,0,0,0,0,0.3326,0.3333,0.3395,0.3397,0.34,0.3445,0.3432,0.3485,0.3462,0.3439,0.3461,0.346,0.35,0.3505,0.3518,0.3566,0.3568,0.3541,0.3543,0.3544,0.3545,0,0,0,0,0,0,0,0.3322,0.333,0.3406,0.3396,0.3399,0.3403,0.341,0.3442,0.3472,0.3441,0.3442,0.3449,0.3501,0.3515,0.352,0.3569,0.3541,0.3544,0.3546,0.3547,0.3646,0.3646,0,0,0,0,0,0,0.3316,0.3327,0.3404,0.3408,0.3361,0.3405,0.3413,0.3431,0.3471,0.3477,0.345,0.345,0.351,0.3516,0.3522,0.3562,0.3544,0.3547,0.3549,0.3645,0.3646,0.3647,0,0,0,0,0,0,0.3313,0.3322,0.3402,0.3368,0.3378,0.3408,0.3428,0.3432,0.3446,0.3478,0.3484,0.3458,0.351,0.3518,0.3552,0.3564,0.3549,0.3552,0.3644,0.3645,0.3646,0.3641,0,0,0,0,0,0,0.331,0.3321,0.3333,0.3368,0.338,0.3431,0.3428,0.3434,0.3452,0.3452,0.3488,0.3493,0.351,0.3547,0.3555,0.3568,0.3554,0.3643,0.3645,0.3646,0.364,0.3642,0.3643,0,0,0,0,0,0.3306,0.333,0.3334,0.3343,0.3396,0.3431,0.3438,0.3456,0.3453,0.3465,0.3485,0.3492,0.3561,0.3551,0.356,0.3574,0.3643,0.3644,0.3646,0.3639,0.3641,0.3643,0,0,0,0,0,0,0.3297,0.3335,0.334,0.3375,0.34,0.3434,0.345,0.3458,0.3484,0.3484,0.3505,0.3513,0.3546,0.3564,0.3551,0.3606,0.3602,0.3605,0.3594,0.3596,0.3597,0.3593,0.3557,0,0,0,0,0,0.3298,0.3324,0.3356,0.3384,0.3396,0.3421,0.3437,0.3449,0.3475,0.3486,0.3509,0.3535,0.3562,0.358,0.3607,0.3642,0.365,0.3656,0.3658,0.3659,0.3662,0.3681,0.3685,0.3652,0.3652,0.3652,0,0,0.3303,0.3327,0.3341,0.3382,0.3403,0.3429,0.343,0.3457,0.3477,0.349,0.3524,0.3542,0.3572,0.3607,0.3623,0.3622,0.3672,0.3661,0.3661,0.3664,0.3683,0.3687,0.3689,0.3653,0.3653,0.3653,0,0,0.3324,0.3345,0.337,0.339,0.3421,0.3437,0.3443,0.3476,0.3488,0.3522,0.3533,0.3557,0.3604,0.3625,0.3642,0.367,0.3677,0.3678,0.3685,0.3704,0.3707,0.3709,0.372,0.3723,0.3681,0.3681,0.3681,0,0.3326,0.3365,0.3383,0.3409,0.3427,0.344,0.3466,0.3485,0.3523,0.3535,0.3533,0.3591,0.3613,0.3653,0.3659,0.3673,0.368,0.3674,0.3705,0.3708,0.371,0.372,0.3724,0.368,0.368,0.368,0.368,0,0.3366,0.3392,0.341,0.3445,0.3465,0.3491,0.3513,0.3531,0.354,0.3557,0.3591,0.3617,0.3649,0.366,0.367,0.3701,0.3699,0.3701,0.3697,0.3713,0.3723,0.3727,0.368,0.368,0.368,0.368,0,0,0.3384,0.3428,0.3434,0.345,0.3484,0.3506,0.3532,0.3563,0.3578,0.3604,0.3627,0.3666,0.3667,0.3686,0.3699,0.3715,0.3736,0.3715,0.3716,0.3718,0.3772,0.3771,0.3775,0.374,0.3741,0.3742,0.3769,0,0.3409,0.3457,0.3474,0.3514,0.3539,0.355,0.3574,0.3597,0.3613,0.3637,0.3655,0.3682,0.3682,0.3693,0.371,0.373,0.3747,0.3728,0.3763,0.3764,0.3755,0.378,0.3779,0.3804,0.3773,0.3774,0.3775,0,0.3446,0.3472,0.3514,0.3544,0.3556,0.3576,0.3606,0.3628,0.3655,0.3665,0.3686,0.3697,0.3725,0.3719,0.3759,0.3745,0.376,0.3772,0.3773,0.3778,0.377,0.3786,0.3813,0.3817,0.3781,0.378,0.378,0,0.3455,0.35,0.3531,0.3545,0.3581,0.3595,0.3611,0.3637,0.3655,0.368,0.3692,0.3721,0.3737,0.3759,0.3777,0.3771,0.3815,0.3811,0.3825,0.3825,0.3835,0.3834,0.3865,0.3843,0.3843,0.3843,0.3843,0,0.3483,0.3508,0.3536,0.3555,0.3583,0.3602,0.363,0.3646,0.3669,0.3692,0.3704,0.3725,0.3748,0.3772,0.3786,0.3817,0.3824,0.3833,0.3837,0.3832,0.3831,0.3843,0.3842,0.3844,0.3844,0.3844,0.3843,0,0.3499,0.3518,0.3552,0.3583,0.3592,0.3612,0.3639,0.3658,0.3673,0.3702,0.371,0.3735,0.3764,0.3784,0.3821,0.3831,0.3864,0.3867,0.3855,0.3857,0.387,0.3869,0.391,0.3917,0.389,0.389,0.3891,0,0.3515,0.3535,0.3568,0.3584,0.3599,0.3625,0.3642,0.3661,0.3678,0.371,0.3725,0.3755,0.3779,0.3825,0.3847,0.3875,0.3879,0.3892,0.3884,0.3878,0.388,0.3878,0.3881,0.3893,0.3893,0.3894,0.3894,0,0.3542,0.3551,0.3575,0.3603,0.3624,0.3647,0.367,0.3682,0.3705,0.3724,0.3753,0.3772,0.381,0.3839,0.3869,0.3886,0.3894,0.3896,0.3901,0.3897,0.3889,0.3894,0.3858,0.3895,0.3895,0.3895,0.3895,0.3895,0.3559,0.3577,0.3603,0.363,0.3649,0.367,0.369,0.3708,0.3732,0.3764,0.3773,0.3803,0.3829,0.3871,0.3888,0.3912,0.3911,0.3918,0.392,0.3921,0.3921,0.3884,0.3917,0.3917,0.3917,0.3917,0.3917,0,0.3588,0.3605,0.3629,0.3661,0.3682,0.3686,0.3712,0.373,0.3756,0.3779,0.3803,0.3836,0.3864,0.3888,0.3917,0.3931,0.3936,0.3939,0.3938,0.3942,0.392,0.3913,0.3935,0.3935,0.3935,0.3935,0.3935,0.3935,0.3605,0.3635,0.3647,0.3687,0.3703,0.3733,0.3747,0.3767,0.3785,0.3822,0.3845,0.386,0.3883,0.3914,0.394,0.3946,0.3956,0.3958,0.3965,0.3945,0.3943,0.3941,0.3935,0.396,0.396,0.3984,0.3985,0.3985]}]]